Presure
168 166 168 180 192 196 193 191 182 198 194 179 182 179 165 163 179 188 179 193 193 202 209 184 225 242 248 262 222 190 196 198 200 200 199 199 198 194 196 188 185 165 174 178 167 158 158
165 184 174 187 237 222 207 204 192 194 200 169 153 177 179 168 179 184 186 198 201 199 224 253 264 286 388 419 417 412 413 215 203 214 202 194 188 201 192 168 200 191 191 164 171 171 167
176 199 186 183 198 163 226 221 204 189 163 152 175 163 175 176 173 190 192 202 210 232 250 277 332 421 389 377 370 374 372 375 386 380 211 201 208 214 189 173 203 196 191 194 192 192 180
167 193 183 197 207 236 222 221 176 168 163 164 171 173 183 171 185 190 202 208 228 234 275 324 421 388 352 346 341 338 344 345 353 362 388 271 237 205 230 200 191 195 197 188 189 183 182
170 193 186 198 188 239 207 172 154 154 163 171 177 179 164 180 180 201 200 216 231 251 306 432 385 357 335 334 330 324 319 320 329 337 344 371 454 311 221 216 216 209 195 131 169 127 134
174 181 191 196 185 202 197 170 170 157 171 169 171 178 181 180 197 203 206 224 237 255 419 400 352 331 349 310 513 514 491 450 428 306 318 325 367 449 418 261 216 214 209 202 168 182 195
168 178 199 255 182 193 163 170 160 169 170 175 164 179 181 182 202 195 207 229 228 311 420 394 348 322 323 516 495 483 508 496 444 448 448 301 313 354 428 434 290 233 218 219 191 186 199
176 192 220 247 185 171 171 164 172 171 163 166 175 165 174 194 183 202 226 222 241 305 364 378 331 304 447 484 509 378 449 462 464 407 434 439 486 313 384 420 419 295 281 221 216 210 199
171 203 222 189 180 179 170 162 171 169 179 174 173 168 183 194 189 211 214 231 257 280 378 378 334 299 336 514 473 188 317 285 380 371 414 425 475 300 324 462 425 407 297 265 261 214 206
172 192 205 179 170 174 164 166 161 176 174 174 170 186 185 191 183 213 211 225 267 263 385 385 343 329 307 432 463 480 464 468 427 394 397 410 451 456 299 333 418 431 404 300 278 270 220
171 179 193 228 169 162 166 163 153 176 172 175 173 192 184 186 197 207 204 230 252 261 355 397 341 325 305 505 483 461 462 446 381 384 415 434 464 456 304 307 448 400 380 362 380 280 274
173 172 192 206 176 167 159 165 172 169 172 179 185 174 177 193 200 195 207 234 237 261 294 382 359 319 318 318 488 442 436 376 375 389 409 421 447 424 439 290 378 422 370 361 351 386 297
199 177 184 211 178 172 160 165 171 172 172 174 178 172 176 184 188 202 205 229 242 264 282 316 373 274 309 323 503 487 449 368 368 385 381 385 393 409 453 374 306 368 443 368 346 352 368
198 180 182 207 180 163 164 166 174 174 177 172 166 173 177 179 186 193 204 201 247 254 257 282 374 348 320 336 323 483 431 429 362 368 372 379 386 392 427 359 293 407 368 388 372 384 408
184 177 185 204 173 162 162 159 176 180 168 167 169 172 172 173 191 193 210 198 241 248 257 265 285 365 335 312 335 324 466 428 361 360 363 367 377 383 403 377 287 378 339 354 362 352 375
187 191 185 202 171 167 166 159 173 166 178 165 173 163 171 181 191 194 207 209 238 244 246 258 270 321 352 321 337 365 430 449 380 359 362 368 383 390 413 401 366 276 333 371 388 343 347
175 204 186 203 168 167 168 170 174 158 176 162 169 166 176 187 180 187 197 213 218 237 242 246 256 265 356 337 322 344 340 476 428 357 356 365 380 383 386 397 419 275 273 327 340 368 353
188 196 187 210 171 164 164 164 167 155 173 161 167 172 170 173 186 186 204 204 220 239 232 237 249 255 268 358 339 337 355 362 468 413 347 354 373 374 375 398 371 396 271 270 306 342 405
188 188 188 213 167 163 167 168 156 162 171 163 165 168 162 172 173 184 202 203 203 229 229 238 240 245 254 271 347 335 341 367 352 434 397 342 379 377 378 386 374 385 350 273 276 330 332
194 192 199 213 159 159 166 164 168 169 165 162 164 165 171 175 172 186 188 206 198 215 233 223 229 245 242 256 271 344 333 351 365 346 416 411 346 371 374 364 371 381 361 271 279 280 340
195 192 194 212 155 160 162 161 162 169 162 153 169 165 174 177 172 177 189 204 196 214 218 237 228 233 239 237 250 263 345 347 357 364 343 419 386 347 382 366 353 361 334 289 262 265 267
195 196 192 213 155 165 169 162 160 166 161 160 169 163 155 159 171 174 190 180 199 199 209 226 227 229 230 238 240 251 261 346 358 367 363 396 413 388 338 365 352 348 363 325 304 267 248
199 209 197 166 162 164 171 163 161 153 153 161 170 163 159 176 177 172 188 195 206 199 214 209 230 232 227 229 243 242 253 263 354 364 376 364 384 415 382 345 372 345 351 351 320 302 285
216 194 191 164 154 164 177 171 166 167 157 159 161 154 163 168 176 178 176 186 204 204 215 209 220 226 228 237 231 239 235 247 266 363 372 382 364 349 412 392 356 363 346 323 333 338 309
195 205 169 169 153 168 165 164 163 161 168 155 158 155 169 169 159 175 179 182 191 203 196 217 209 224 227 222 238 225 242 233 234 269 373 378 374 356 340 413 390 391 340 335 323 322 305
202 179 176 173 161 163 163 171 161 156 169 162 154 162 165 161 153 160 179 203 184 187 202 199 211 218 224 222 221 234 233 240 238 248 266 384 381 378 363 341 417 396 363 332 328 310 321
217 203 169 175 164 162 160 156 170 165 169 153 170 155 159 163 159 160 177 185 188 180 209 198 212 215 214 226 218 226 225 235 243 235 250 269 384 379 373 357 342 395 397 380 334 320 327
213 173 171 171 172 169 162 164 173 165 155 169 170 160 168 169 173 160 183 164 186 188 194 205 195 209 215 222 226 216 230 226 233 239 236 255 295 396 380 376 356 344 427 400 380 341 328
197 210 173 165 163 156 162 154 154 159 158 165 167 156 162 172 178 169 186 171 196 202 182 205 199 214 210 217 225 222 229 225 231 233 241 240 252 298 401 385 374 364 341 352 408 372 356
Wind_Speed
33 35 38 38 38 36 35 32 31 32 32 32 36 39 35 38 48 58 54 73 77 85 89 76 93 100 102 109 111 114 118 119 122 121 124 130 129 126 123 116 117 91 105 107 106 105 106
34 37 40 40 34 35 38 34 32 33 35 33 35 45 52 46 62 70 69 82 84 84 98 104 103 112 86 74 74 75 75 122 124 129 127 128 121 130 118 95 120 112 114 103 110 110 110
36 39 39 39 39 36 34 34 32 31 31 35 49 47 64 64 61 81 85 91 95 105 108 117 100 66 67 68 70 71 73 76 79 90 130 126 132 137 113 101 124 119 115 112 107 104 109
35 41 39 42 46 35 33 31 34 36 39 43 56 63 69 66 81 87 92 96 106 109 116 106 67 59 60 64 67 71 74 76 77 79 78 126 139 131 142 121 116 118 123 114 108 109 107
38 44 41 44 37 36 31 33 37 37 46 56 63 66 61 79 81 92 95 104 110 115 115 75 67 62 59 61 61 64 72 75 77 78 76 84 74 129 138 136 133 130 115 62 99 65 67
40 45 45 43 39 35 34 35 41 42 55 59 62 70 75 76 90 97 103 109 113 120 92 80 70 62 61 65 37 36 34 44 43 75 76 81 83 71 91 139 136 135 127 126 99 113 122
41 46 48 40 38 36 36 40 42 53 57 65 62 72 77 84 95 98 106 112 119 111 87 76 69 65 64 42 36 32 28 24 35 32 31 78 78 76 68 74 137 143 140 137 127 124 125
43 48 48 38 38 37 41 43 52 55 56 63 71 67 79 92 91 104 108 114 114 113 100 72 69 71 58 46 32 33 31 28 26 29 25 31 31 78 70 70 77 140 133 140 139 137 124
41 49 51 39 40 42 43 47 54 59 62 66 70 74 88 96 100 105 111 112 110 116 95 76 67 68 37 40 41 40 16 19 22 19 19 24 28 72 72 60 73 81 137 132 125 135 128
40 48 50 39 40 43 45 52 52 62 66 70 74 82 88 94 99 105 113 116 113 115 99 78 74 71 73 34 42 35 26 16 7 13 15 19 19 31 63 64 67 77 81 132 135 123 137
39 46 47 48 41 42 47 52 47 64 66 73 79 85 90 93 97 110 112 112 117 117 111 87 82 85 81 48 42 34 29 16 14 12 8 6 7 18 59 60 55 70 78 89 87 130 127
40 41 49 45 41 43 46 56 62 62 68 73 79 85 93 99 103 107 112 106 112 115 123 90 87 82 82 76 37 33 26 21 18 12 7 11 9 15 31 56 53 59 73 83 91 81 129
49 43 47 48 41 45 48 57 61 65 70 73 80 84 90 97 101 107 111 106 112 116 128 123 87 66 88 81 37 25 15 24 20 13 9 5 7 5 13 41 50 54 49 76 87 92 97
55 45 48 49 41 45 50 58 63 66 70 75 79 87 92 99 102 105 112 118 103 116 119 133 90 89 87 83 80 26 30 22 22 16 11 7 6 5 8 34 47 33 52 61 75 76 72
53 44 48 47 43 45 51 54 63 64 72 76 83 89 94 98 102 106 112 106 99 115 124 128 131 88 88 89 84 77 18 22 24 19 13 8 3 4 16 34 43 37 50 57 65 71 70
55 45 47 48 45 47 53 55 63 65 71 77 84 85 94 97 102 107 107 107 103 113 119 131 134 119 88 89 84 75 42 19 22 20 15 8 6 3 2 23 36 42 47 43 51 68 74
45 50 47 47 45 48 54 59 62 63 69 75 84 85 94 96 101 106 104 109 110 106 118 124 132 138 97 91 90 81 75 22 17 25 18 12 6 4 3 8 17 44 42 46 49 57 68
57 51 45 48 44 50 55 58 63 62 69 75 83 88 91 97 101 103 105 110 113 111 112 118 130 136 140 91 88 85 77 68 13 15 26 17 7 3 5 6 21 16 43 44 47 53 41
54 49 43 46 44 49 53 57 60 68 70 79 81 86 87 97 99 104 105 108 111 110 108 117 128 130 138 139 90 87 82 71 65 15 15 26 8 2 7 15 25 33 38 43 42 44 45
51 52 45 47 44 47 51 57 60 65 70 75 81 84 90 96 100 103 106 105 109 110 108 105 112 134 132 140 137 89 84 74 65 60 16 9 21 3 9 17 23 31 37 40 39 33 38
50 47 43 48 45 47 51 56 59 65 67 66 79 82 92 95 98 102 105 105 108 110 109 111 108 118 123 126 141 142 85 80 69 59 55 9 7 15 11 18 19 26 38 40 36 35 37
47 45 39 48 45 45 48 55 58 63 69 73 79 81 73 83 99 102 103 105 104 108 109 110 109 110 112 129 128 138 140 78 70 62 53 39 7 5 12 14 18 23 30 44 41 40 39
43 42 39 35 42 46 47 54 58 59 65 73 77 82 78 93 96 98 99 101 102 105 107 109 112 113 112 113 132 134 136 139 74 63 54 48 28 7 8 5 18 21 32 37 44 43 41
35 36 36 35 43 45 45 51 57 62 65 70 75 73 85 90 94 98 98 101 100 102 107 107 109 112 109 124 116 128 123 139 137 67 57 47 44 38 10 10 7 24 29 37 37 42 45
35 42 32 33 43 43 49 53 57 62 64 70 74 72 85 90 84 98 99 103 102 101 105 104 105 108 114 105 124 107 130 113 114 134 60 50 42 39 32 14 11 19 24 30 38 45 45
42 34 34 33 40 44 49 51 56 62 63 69 70 78 84 82 74 89 98 95 102 105 100 104 105 104 108 107 103 120 121 129 122 133 130 51 43 35 31 27 15 14 33 28 32 40 42
42 37 34 34 37 41 47 52 54 58 62 67 72 72 74 85 77 87 96 96 97 102 97 100 103 105 103 110 103 111 110 125 131 122 139 130 46 37 30 26 22 12 18 33 35 37 43
43 37 36 36 37 40 44 50 53 57 63 67 71 76 81 85 88 84 91 90 98 99 99 96 101 100 102 108 111 98 116 112 127 125 114 139 112 39 32 25 22 17 11 30 32 44 44
42 41 40 38 38 44 43 50 55 59 64 69 73 74 81 84 85 83 87 97 91 95 100 97 100 102 102 106 113 109 120 112 124 128 126 127 134 114 34 29 21 17 15 11 33 35 51
Wind_Direction
343 341 341 335 333 329 323 322 318 312 310 316 315 310 301 306 314 310 306 307 305 301 296 273 287 285 280 275 260 252 250 249 249 248 247 249 250 250 249 248 247 245 247 246 246 249 250
344 339 338 338 320 317 316 318 317 319 315 325 306 318 324 319 324 319 317 312 310 304 302 300 303 302 296 289 283 276 271 251 247 244 244 246 250 247 248 251 247 245 244 239 242 244 246
343 342 338 335 340 342 314 311 315 325 330 311 328 329 330 327 326 321 322 317 314 312 313 311 313 305 296 289 282 278 270 262 258 250 248 250 244 245 252 246 242 241 241 240 239 242 244
346 345 339 343 345 330 330 325 335 337 331 333 341 335 327 331 329 325 320 322 318 320 316 321 324 312 296 288 280 276 270 266 260 253 247 246 243 248 242 246 248 243 241 239 237 236 237
346 349 343 346 348 329 338 339 336 328 340 344 337 332 337 333 332 326 328 327 325 324 330 337 331 325 313 303 290 275 269 266 262 255 247 242 237 237 244 244 243 243 246 242 239 237 234
347 347 346 345 347 342 340 344 345 336 342 342 340 337 336 335 332 333 334 330 332 330 345 342 334 324 322 309 317 306 292 280 269 255 247 243 237 234 232 239 244 244 244 242 238 243 238
349 346 348 341 348 347 342 350 344 346 344 340 343 338 338 341 338 340 337 338 338 350 348 343 340 335 333 342 332 319 315 291 271 264 252 241 239 235 232 227 236 238 241 236 241 241 238
350 350 351 348 351 350 351 349 349 344 348 347 339 342 346 341 344 342 342 343 340 356 351 349 348 342 348 342 338 317 310 292 281 264 258 246 241 234 229 224 219 233 235 237 234 235 241
350 355 356 351 354 353 352 351 349 348 344 344 346 347 345 344 347 344 347 342 348 1 356 356 356 349 342 353 351 315 323 311 281 275 260 244 233 233 231 215 217 216 229 232 227 235 236
351 354 358 353 353 351 353 354 353 346 347 347 351 346 348 348 348 349 350 348 4 5 1 2 0 1 2 357 355 359 8 11 317 294 273 257 243 228 230 228 216 211 215 228 234 228 232
351 350 354 353 351 348 353 353 351 347 349 348 351 348 352 351 349 355 352 350 10 8 5 5 6 7 6 4 4 6 16 29 354 320 306 281 252 226 223 225 208 213 211 219 218 229 230
351 348 353 353 350 347 353 352 347 351 351 352 352 357 357 353 357 357 355 358 11 14 12 9 8 11 10 10 10 4 1 15 8 357 19 33 28 211 209 221 215 211 214 213 222 216 225
348 347 351 352 349 349 353 352 349 350 353 355 356 358 360 356 359 357 358 4 13 15 19 15 10 12 12 13 14 18 15 16 12 11 13 69 72 234 201 211 217 210 213 211 219 222 222
350 348 351 352 350 352 353 351 348 350 353 357 0 358 360 0 358 359 1 4 11 20 20 22 14 11 15 15 17 19 22 17 17 14 11 15 105 160 194 208 212 209 207 208 211 213 220
350 347 349 351 350 352 356 356 349 354 357 0 1 358 1 0 359 360 3 357 7 20 24 27 24 15 16 17 17 18 15 21 15 21 17 17 25 140 168 204 213 203 205 208 211 217 216
350 348 348 349 349 351 354 357 352 357 355 2 359 2 359 357 0 2 1 359 9 20 24 26 26 22 16 19 18 18 21 18 16 16 19 17 33 49 153 213 211 210 204 204 205 213 217
351 344 348 346 346 350 353 351 352 2 356 2 1 1 356 357 359 2 360 2 7 13 24 25 27 27 16 18 20 19 19 16 30 9 15 11 36 51 153 192 195 211 212 204 208 212 216
342 346 346 347 347 350 353 355 354 3 358 1 1 358 359 0 360 359 3 3 8 16 18 24 27 28 26 17 19 19 20 21 28 34 6 7 19 57 119 153 178 182 211 213 208 212 218
337 343 345 345 347 350 352 351 3 359 357 358 359 0 2 359 3 360 3 5 6 13 16 24 25 27 29 26 19 21 19 20 21 23 13 5 18 48 171 170 187 167 184 215 217 213 210
331 337 341 343 346 351 350 355 355 354 358 358 357 0 358 356 1 1 1 6 6 9 18 15 23 27 28 29 26 20 22 19 20 21 10 34 359 346 193 189 187 179 176 217 217 209 208
326 335 339 338 346 351 352 355 358 355 359 4 355 359 357 357 359 359 0 6 6 9 11 22 22 28 29 29 29 26 19 18 19 20 22 5 344 354 195 203 192 190 195 212 217 209 205
322 329 339 334 345 347 344 353 359 357 358 359 355 357 6 4 358 359 359 2 6 7 8 16 20 24 27 28 30 29 27 20 18 18 20 22 329 291 353 219 207 198 191 205 213 215 208
315 322 337 348 348 347 344 354 357 359 360 356 354 356 1 355 354 358 358 2 6 7 10 8 19 23 23 26 28 29 28 27 19 17 19 19 20 295 271 310 225 216 200 200 213 215 215
312 333 338 348 348 348 343 348 351 351 357 356 355 1 355 356 354 354 359 359 6 8 12 9 15 19 22 26 26 27 28 27 26 18 16 20 19 23 296 261 249 221 209 209 209 217 217
339 331 349 347 346 349 352 352 352 353 350 355 356 359 353 354 2 354 355 357 2 6 6 12 10 19 21 20 25 25 25 27 25 24 16 15 19 15 18 296 259 217 221 214 213 219 224
335 337 344 346 347 351 353 349 350 353 350 349 356 352 353 357 4 2 354 2 359 2 6 5 10 13 19 19 19 24 26 25 24 25 23 15 14 15 14 13 273 250 222 232 219 219 219
335 332 343 344 345 348 351 351 348 349 349 353 348 354 357 352 358 359 353 353 358 1 8 3 10 12 13 19 17 22 22 24 23 23 23 21 11 12 9 6 3 287 254 228 231 224 221
332 332 334 341 342 345 349 348 349 349 350 348 348 351 350 349 350 358 352 1 354 360 0 5 1 8 12 16 18 15 21 21 22 19 21 21 18 6 7 4 355 352 335 243 230 229 224
328 329 327 339 344 343 345 348 349 348 348 348 348 352 349 348 349 355 351 353 357 2 358 2 0 9 7 12 15 16 18 18 20 18 18 18 19 14 359 1 356 344 334 325 235 229 224